This is the latest recevied weather packets stored in our database for station/object DB5WY-13. If no packets are shown the sender has not sent any weather packets the latest 10 day(s).
| Time | Temp. | Humidity | Pressure | Rain* | Wind** | Luminosity | Snow |
|---|---|---|---|---|---|---|---|
| 1777478423 | 13.33° C | 37% | 1025.6 hPa | 0 mm | - | - | - |
| 1777477823 | 13.33° C | 36% | 1025.7 hPa | 0 mm | - | - | - |
| 1777477223 | 13.33° C | 35% | 1025.6 hPa | 0 mm | - | - | - |
| 1777476623 | 13.33° C | 35% | 1025.6 hPa | 0 mm | - | - | - |
| 1777476023 | 13.33° C | 35% | 1025.6 hPa | 0 mm | - | - | - |
| 1777475424 | 13.89° C | 36% | 1025.7 hPa | 0 mm | - | - | - |
| 1777474824 | 13.89° C | 34% | 1025.7 hPa | 0 mm | - | - | - |
| 1777474224 | 13.89° C | 35% | 1025.8 hPa | 0 mm | - | - | - |
| 1777473624 | 13.89° C | 35% | 1025.7 hPa | 0 mm | - | - | - |
| 1777473024 | 13.89° C | 31% | 1025.7 hPa | 0 mm | - | - | - |
| 1777472424 | 14.44° C | 29% | 1025.8 hPa | 0 mm | - | - | - |
| 1777471824 | 16.11° C | 27% | 1025.9 hPa | 0 mm | - | - | - |
| 1777471224 | 17.78° C | 28% | 1025.8 hPa | 0 mm | - | - | - |
| 1777470624 | 17.78° C | 27% | 1025.7 hPa | 0 mm | - | - | - |
| 1777470024 | 18.89° C | 25% | 1025.8 hPa | 0 mm | - | - | - |
| 1777469424 | 17.78° C | 26% | 1025.8 hPa | 0 mm | - | - | - |
| 1777468824 | 17.78° C | 26% | 1026 hPa | 0 mm | - | - | - |
| 1777468224 | 18.33° C | 26% | 1025.8 hPa | 0 mm | - | - | - |
| 1777467624 | 17.78° C | 27% | 1026 hPa | 0 mm | - | - | - |
| 1777467024 | 18.33° C | 28% | 1025.8 hPa | 0 mm | - | - | - |
| 1777466424 | 17.78° C | 26% | 1025.7 hPa | 0 mm | - | - | - |
| 1777465824 | 17.78° C | 27% | 1025.7 hPa | 0 mm | - | - | - |
| 1777465224 | 17.78° C | 26% | 1025.7 hPa | 0 mm | - | - | - |
| 1777464624 | 17.78° C | 26% | 1025.8 hPa | 0 mm | - | - | - |
| 1777464024 | 18.33° C | 26% | 1025.9 hPa | 0 mm | - | - | - |
* Rain latest hour (hover to see other rain measurements)
** Current wind speed in m/s (hover to see current wind gust speed)